Main page
METAR-TAF:

METAR-TAF

Airports :

Mahshahr Airport

Mahshahr, Iran

latitude: 30-33-23N, longitude: 049-09-07E, elevation: 2 m

Current weather observation

The report was made 1 hour and 7 minutes ago, at 18:00 UTC
Wind 10 kt from the West/Northwest
Temperature 11°C
Humidity 66%
Pressure 1020 hPa
Visibility: 3500 m
Scattered clouds at a height of 4000 ft
widespread dust

METAR: OIAM 181800Z 30010KT 3500 DU SCT040 11/05 Q1020

Time: 22:37 (19:07 UTC)


TAF: missing

Weather observations and forecasts of more than 4000 airports (METAR and TAF reports).

The available stations are represented by yellow and red dots on the map.

Hover mouse over dot to see the name of the station.

Then click to see weather observations and forecasts.

To change the map : click on the green buttons with a black cross to zoom in, on the green button with a dash to zoom out, or on the green arrows for adjacent maps.


METAR-TAF: